Wind_Speed
3 4 7 11 9 8 11 12 11 9 8 10 11 11 9 16 19 5 20 18 14 14 11 8 10 11 12 14 17 11 8 13 13 9 7 6 7 7 3 3 3 3 5 7 6 7 12 14 16 17 15 17 19 19 17 16 14 12 10 8 7 6 6 7 8 9 10 10 12 14 16 16 16 15 11 11 10 7 6 6 8 10 14 15 16 16
8 10 11 12 12 11 11 11 10 10 11 12 14 13 11 13 15 7 18 17 13 11 10 10 9 11 12 9 10 9 13 18 14 12 9 5 6 7 5 6 5 4 7 8 6 8 12 14 16 17 16 16 18 17 16 15 15 13 11 9 7 7 7 7 8 9 10 11 13 14 16 17 17 16 12 8 7 5 5 5 6 6 8 10 11 13
15 17 13 8 10 13 15 15 14 15 15 14 15 16 13 11 9 5 8 8 9 7 8 12 13 14 13 6 4 5 17 18 13 12 9 6 6 8 9 10 9 8 9 9 8 8 11 13 16 19 19 17 17 17 16 16 16 14 12 10 8 7 7 8 8 9 11 13 15 16 17 18 18 17 14 9 7 5 4 4 4 5 6 7 7 9
17 17 12 6 10 13 15 17 15 15 16 16 15 16 15 12 10 6 1 6 9 5 4 10 16 19 20 12 5 2 11 14 14 12 7 8 9 11 12 10 10 11 10 9 8 7 10 12 15 19 21 20 19 19 18 17 16 15 13 10 9 8 8 8 9 10 11 13 15 17 18 19 19 18 15 11 7 5 3 2 2 2 3 4 4 5
16 13 10 7 12 15 16 15 12 12 13 12 10 11 14 15 12 9 2 2 3 0 1 7 13 19 22 15 9 6 5 8 14 13 7 9 13 13 11 9 8 9 9 8 8 8 9 10 13 18 21 21 21 20 20 18 17 17 14 12 11 10 8 8 9 9 10 12 14 16 18 18 18 18 15 11 7 5 3 2 1 1 1 2 2 2
21 15 9 7 9 10 11 10 8 9 10 8 7 8 12 14 14 11 5 3 4 6 6 6 7 12 18 17 14 12 8 9 13 13 12 10 12 14 13 15 12 9 8 7 7 8 8 9 11 15 19 20 21 21 21 20 19 18 16 13 13 12 10 9 9 9 10 11 12 14 16 16 16 17 14 10 8 5 2 1 1 1 1 2 2 2
19 17 14 10 7 5 5 4 4 7 9 9 8 7 8 10 12 13 11 8 5 4 4 5 4 6 12 13 13 11 11 16 21 18 12 9 10 11 13 15 13 11 9 7 8 10 10 10 10 12 15 17 19 21 21 21 20 19 18 15 15 14 12 10 10 9 9 10 11 13 15 15 15 15 14 11 9 7 4 2 2 2 3 3 3 2
8 10 15 11 8 9 8 9 8 8 11 13 11 10 10 12 12 10 11 11 9 8 5 6 6 6 12 13 12 12 14 17 19 17 14 13 9 11 13 14 13 12 12 10 10 10 9 10 11 11 11 13 16 19 21 21 21 20 20 17 16 17 15 13 12 10 10 10 10 12 14 14 14 14 13 12 11 10 7 4 3 2 2 3 3 3
9 9 10 9 9 10 11 13 10 10 14 14 11 10 11 15 15 10 9 12 12 11 7 10 8 5 10 12 11 13 15 11 15 15 14 10 10 16 17 14 14 10 7 7 7 7 8 8 9 10 10 10 13 18 21 22 22 22 22 20 19 18 18 16 14 12 11 11 9 11 13 13 13 13 12 12 11 11 9 5 4 4 4 2 1 2
18 12 8 8 6 7 11 11 10 12 16 14 12 11 8 10 14 13 13 14 9 6 5 8 10 6 6 11 12 12 14 12 13 11 11 7 8 17 15 9 9 6 4 4 5 6 7 7 8 10 12 12 13 16 19 21 24 25 24 23 23 22 20 20 18 15 13 12 11 10 12 13 12 11 11 10 10 10 9 7 7 7 7 5 4 2
17 12 10 12 7 7 11 12 10 11 15 12 9 12 11 8 11 14 15 14 7 2 3 6 12 10 6 7 11 12 12 12 13 12 14 11 9 14 14 10 7 5 5 4 4 5 5 7 10 10 11 13 14 16 17 19 23 26 28 28 27 25 23 23 22 18 16 14 12 11 12 14 12 10 9 9 9 8 8 8 8 8 8 7 6 4
14 14 14 16 14 11 13 16 13 7 9 10 5 7 7 5 9 11 10 8 4 2 4 6 11 11 8 7 8 9 9 13 15 14 17 18 15 14 13 11 10 10 10 7 5 6 6 7 10 11 11 12 14 15 16 17 19 23 29 30 28 27 26 26 25 22 19 16 15 13 12 13 11 9 7 7 7 7 7 7 8 8 8 8 7 6
11 15 13 12 15 12 8 12 11 5 6 11 9 8 5 5 5 4 1 1 2 4 7 9 10 7 8 10 8 5 6 11 14 13 16 21 20 18 17 16 14 14 14 12 9 8 8 8 12 13 10 11 13 14 15 16 18 20 23 28 29 28 27 28 28 25 22 19 16 13 12 12 10 8 6 5 5 5 5 6 7 7 8 8 8 7
9 11 13 13 15 13 7 7 10 7 5 11 12 10 7 3 0 1 1 1 2 4 8 9 6 5 7 6 7 7 6 8 11 13 16 19 19 19 20 20 21 22 22 20 16 13 12 13 13 11 10 12 13 14 14 15 17 19 20 24 29 31 30 31 31 28 24 21 18 14 12 11 9 7 5 3 4 4 4 4 6 7 8 9 9 9
6 6 9 11 11 12 7 5 7 8 6 8 13 13 13 8 4 2 1 2 2 3 6 8 2 3 6 1 6 7 8 10 13 16 18 18 17 18 21 22 23 23 21 19 16 13 12 12 12 11 13 13 13 14 15 15 15 18 21 22 25 32 37 35 33 31 27 23 20 14 11 11 9 7 6 2 1 2 2 3 5 6 6 8 9 10
9 9 8 9 8 8 5 2 3 6 7 5 7 11 12 8 6 6 5 5 7 3 4 9 4 3 5 2 6 8 13 12 11 14 15 15 15 15 17 18 19 19 15 12 11 10 9 10 11 12 13 14 14 15 15 16 16 17 20 21 21 28 36 38 36 34 29 23 19 15 11 11 10 8 7 5 2 1 0 1 2 3 4 5 7 8
8 12 9 6 10 9 5 4 3 4 4 5 4 5 5 5 7 7 6 8 7 1 1 8 7 6 8 8 8 12 14 14 13 13 14 15 16 16 17 17 17 16 13 11 11 11 10 10 10 11 12 12 13 13 13 14 16 17 18 19 20 25 33 38 37 32 27 22 19 16 13 10 10 10 9 7 5 4 3 2 1 0 1 2 3 4
5 12 10 4 8 7 5 7 8 5 4 5 6 5 5 4 9 6 4 3 2 1 3 6 7 7 7 8 12 14 13 15 17 16 16 19 21 22 21 19 17 14 12 11 11 11 10 9 9 8 7 7 8 9 9 10 12 15 16 17 19 22 26 29 27 26 27 25 22 19 13 10 11 12 11 10 9 8 6 5 5 4 3 2 1 1
4 11 10 6 7 6 3 7 9 7 6 7 8 9 7 3 5 4 3 1 2 1 2 4 7 4 2 2 9 14 14 15 17 16 17 20 23 23 19 15 13 12 11 12 12 11 10 8 6 4 4 5 5 5 5 6 7 11 14 15 16 16 16 17 17 21 27 28 25 20 14 11 13 13 14 14 12 11 10 9 9 8 7 5 4 4
4 7 7 9 11 7 5 8 10 6 5 6 8 9 5 3 5 5 4 4 3 3 1 2 2 3 7 6 2 8 13 14 14 14 18 22 23 20 16 12 11 11 11 12 12 11 10 8 6 5 5 5 4 3 3 4 4 6 9 12 12 13 13 12 12 15 20 24 25 21 16 15 15 16 17 17 16 15 14 13 13 12 11 9 8 7
7 6 5 8 11 9 7 5 5 2 4 5 6 8 5 5 4 5 5 4 2 1 2 1 1 3 6 7 4 4 11 11 10 11 15 20 21 17 15 12 10 11 11 11 13 12 10 9 7 7 7 6 6 5 4 5 5 5 7 10 10 9 10 11 11 12 15 19 23 23 20 19 19 19 19 20 20 18 17 16 16 16 15 15 13 12
8 4 3 7 11 12 10 5 6 6 5 7 8 6 6 6 3 3 7 11 9 4 1 2 2 2 2 1 3 4 6 6 8 10 12 16 17 15 15 13 10 10 11 11 12 12 10 10 9 8 8 8 8 8 7 6 6 7 7 9 10 9 8 9 12 13 13 15 21 24 24 23 23 23 22 23 23 22 20 19 19 18 19 19 18 17
6 4 4 7 11 13 13 12 13 10 7 10 10 8 7 8 2 3 4 6 8 6 1 1 1 2 6 7 4 3 3 5 10 14 17 20 20 18 19 18 14 12 11 11 11 11 11 11 10 10 10 10 9 9 9 9 8 7 7 8 8 8 7 8 11 12 12 14 19 23 25 26 27 26 26 24 24 23 22 21 21 20 20 21 21 20
5 5 8 10 12 14 15 16 16 11 8 9 7 8 10 5 3 2 4 6 6 5 0 0 1 2 5 4 2 4 4 6 11 15 17 20 20 20 20 19 17 15 13 13 13 13 12 12 11 11 11 11 11 11 10 10 9 8 8 8 7 7 6 6 8 8 10 14 17 20 24 27 27 26 25 23 22 22 22 21 21 21 21 22 22 22
6 4 5 6 6 8 10 10 9 7 5 6 6 5 3 4 3 8 8 9 7 0 2 0 2 4 5 4 2 3 2 4 6 11 13 14 14 17 19 21 21 17 14 14 15 15 14 14 13 12 12 12 12 13 12 11 10 9 9 8 7 6 6 7 8 7 7 11 15 18 21 23 23 24 25 25 25 25 24 23 24 24 24 25 24 23
9 6 5 4 2 2 4 3 5 9 9 7 7 7 3 2 6 8 8 8 7 2 1 1 3 5 3 3 2 3 2 5 4 6 11 13 15 17 19 21 22 19 16 15 15 15 16 15 14 13 13 13 12 13 13 12 10 10 9 8 7 6 7 8 10 9 8 9 12 14 15 16 19 23 26 28 28 26 26 28 29 29 30 30 27 23
11 11 12 10 8 7 9 9 10 13 14 13 11 8 8 8 7 7 8 7 5 5 5 3 2 5 4 4 5 2 3 2 7 5 6 10 13 16 18 20 19 19 18 16 14 14 15 15 15 15 15 14 13 12 11 10 10 8 7 6 5 5 5 6 7 7 7 7 8 9 10 12 15 19 23 27 28 27 27 28 29 29 30 29 26 22
12 14 15 16 16 15 15 16 17 16 16 16 16 14 14 13 10 10 11 10 9 8 8 6 4 3 3 3 6 7 5 6 6 6 7 9 11 12 15 18 18 18 19 16 13 13 14 13 14 15 16 17 16 14 12 12 11 9 7 6 6 5 5 5 5 5 5 5 6 6 7 8 10 13 17 20 22 22 23 22 22 23 23 23 21 21
10 12 12 13 15 15 14 15 15 15 16 16 15 15 15 13 12 14 16 16 14 13 13 11 11 12 10 7 7 9 9 9 7 6 10 13 14 13 13 14 16 18 19 18 16 16 16 16 15 15 16 16 16 16 16 15 14 12 10 9 9 8 8 8 8 7 7 8 8 8 8 7 8 9 11 13 15 17 18 19 19 20 19 18 19 19
8 8 8 9 10 11 11 12 12 12 14 15 15 15 14 13 15 16 16 14 13 13 13 12 10 8 7 6 7 9 11 11 11 10 7 9 13 16 16 15 15 14 15 16 18 17 17 17 16 17 17 16 16 16 16 17 17 16 14 13 13 13 12 11 11 11 11 11 11 11 11 10 9 9 10 12 13 15 16 17 17 17 17 17 17 18
6 5 5 6 9 11 10 9 9 10 11 14 15 15 15 15 16 17 14 14 13 11 11 13 11 7 6 8 11 14 14 14 16 18 15 10 7 6 9 14 16 18 17 14 14 18 20 20 18 17 18 19 19 18 17 16 18 17 15 15 16 15 14 14 14 15 15 13 12 13 13 13 13 13 14 14 15 15 16 16 17 17 17 18 18 19
4 6 7 7 8 10 8 6 8 10 13 15 14 13 15 15 14 14 13 14 14 11 12 12 8 4 4 7 11 13 15 16 16 18 20 18 14 9 9 9 12 19 21 18 17 22 24 22 22 22 22 20 20 20 18 18 21 21 16 14 15 13 12 14 16 16 16 16 15 16 16 16 16 17 18 18 18 19 19 19 20 20 21 22 22 23
5 5 6 8 10 10 8 8 11 12 11 10 8 8 11 13 13 13 9 7 8 10 11 6 4 3 5 7 7 9 13 15 15 16 20 21 17 15 15 11 7 10 17 21 24 25 24 24 26 27 26 24 24 24 21 19 22 22 16 12 13 13 13 15 16 16 17 17 17 18 18 19 19 20 20 21 20 20 20 20 20 21 22 23 24 24
10 9 9 9 9 8 6 7 10 10 7 6 6 7 10 10 12 12 8 3 4 7 6 2 1 5 7 5 5 7 11 14 15 15 16 19 20 20 19 17 13 10 12 17 22 24 25 26 26 26 25 24 24 24 21 19 20 19 15 13 15 15 15 16 17 18 18 18 18 19 19 20 20 21 21 21 20 20 20 20 20 21 22 23 24 25
14 14 15 14 13 11 9 6 5 4 4 5 7 10 10 9 10 11 8 5 6 8 7 6 7 9 8 6 6 6 8 11 12 12 12 17 23 24 22 22 21 17 14 14 19 23 26 27 27 26 25 25 24 22 21 20 21 19 17 17 17 17 16 17 18 19 19 19 19 20 20 19 20 20 19 19 19 19 20 20 21 21 22 23 24 25
16 15 15 16 16 14 9 5 4 3 4 6 12 14 14 14 13 12 10 7 9 12 11 8 7 8 9 9 9 9 9 8 8 9 13 18 22 24 25 23 21 21 19 16 17 20 21 23 25 25 24 24 24 24 24 24 24 23 22 22 22 20 18 18 20 21 21 21 20 20 20 20 20 19 18 17 17 18 19 20 21 22 23 24 25 25
17 17 18 18 15 12 9 9 10 10 8 10 15 15 14 12 10 7 5 5 10 12 10 8 9 11 12 12 11 12 13 10 8 8 11 15 18 20 23 24 22 22 22 21 20 17 13 16 21 24 25 25 26 28 28 28 28 28 27 26 24 21 19 19 20 21 22 22 22 21 21 21 21 20 19 18 17 17 18 20 21 22 23 24 24 25
17 17 20 18 12 9 9 7 7 7 5 3 5 8 9 6 5 6 5 5 9 11 9 10 13 14 15 15 14 14 14 13 13 12 13 14 15 16 18 20 22 21 20 21 20 13 9 12 16 21 25 26 26 28 30 31 32 30 29 27 25 22 21 21 21 22 23 24 24 23 23 23 23 22 22 21 20 19 19 20 21 22 23 23 24 24
14 13 17 17 10 7 7 5 3 5 5 6 7 9 10 5 3 6 6 6 9 9 7 9 12 13 15 16 15 15 15 14 14 16 17 15 16 17 19 20 20 19 17 19 20 16 14 13 15 17 20 22 22 23 25 28 30 29 28 27 27 26 25 23 22 22 23 24 25 25 24 24 24 24 24 23 22 21 20 21 22 23 24 25 25 25
12 8 8 10 7 6 8 8 7 7 7 8 10 10 10 8 9 7 4 4 8 8 5 7 9 10 14 16 15 15 14 12 13 17 18 17 18 20 21 22 22 20 18 19 22 24 24 21 19 19 20 22 23 24 23 25 28 30 31 31 31 30 28 25 24 23 24 25 25 26 26 26 26 26 26 25 24 23 22 22 24 25 26 27 28 28
9 7 5 5 5 5 7 8 6 4 5 8 9 9 10 11 10 7 4 5 9 8 8 9 10 10 12 14 14 14 12 12 15 17 20 21 22 24 25 25 25 25 23 22 24 26 28 27 25 24 22 23 25 25 24 23 24 27 30 32 33 32 30 28 26 26 26 27 28 28 28 28 28 28 28 28 28 28 27 26 26 26 28 29 30 31
6 6 6 7 7 5 6 6 2 1 2 5 6 6 8 7 5 4 5 7 7 9 10 11 11 10 11 12 14 16 16 18 20 22 23 24 24 25 26 26 26 27 26 26 26 27 29 29 29 28 27 26 26 25 22 19 19 20 23 27 30 30 29 28 28 28 28 29 30 31 31 30 30 30 31 31 31 30 29 28 28 28 28 30 31 33
4 4 4 5 6 6 5 4 2 3 7 10 8 6 6 4 3 6 8 8 10 12 13 13 11 12 13 13 16 19 21 23 24 26 27 28 28 28 28 29 30 30 30 28 27 27 29 30 30 31 31 31 29 27 24 21 21 21 23 26 28 29 28 28 27 28 29 30 31 31 31 31 31 31 31 31 30 29 29 29 29 29 28 29 31 32
2 1 1 3 3 3 2 4 4 5 9 11 9 7 7 6 8 10 12 13 15 16 17 17 16 17 18 20 21 23 25 26 28 29 30 31 31 32 32 32 32 33 34 33 32 30 29 29 28 29 31 32 31 30 29 28 27 27 27 28 29 30 30 29 28 29 30 31 32 32 32 31 30 30 29 28 27 28 29 30 30 30 31 32 31 30
0 1 0 1 2 1 0 2 4 5 5 7 8 8 7 9 10 12 14 17 18 19 20 21 21 22 23 24 26 27 28 29 31 32 33 33 33 34 34 34 35 35 35 35 35 34 32 30 30 30 30 31 32 33 32 32 31 31 30 30 31 31 30 31 31 31 32 33 33 32 31 30 29 29 28 27 28 29 31 33 33 34 35 35 33 32
4 3 5 4 3 3 3 3 4 6 7 8 8 6 8 11 13 15 17 19 21 22 23 23 24 25 27 28 30 31 32 33 34 35 35 34 32 30 30 31 34 35 34 33 34 34 33 32 32 32 32 32 33 34 35 34 34 34 34 34 33 32 31 32 32 33 34 35 34 33 32 31 30 30 29 28 29 31 34 35 36 36 37 37 34 33
5 9 8 6 6 5 4 6 9 12 11 11 11 12 14 15 17 18 20 21 23 25 25 26 27 29 30 31 33 34 35 36 37 38 36 33 30 28 28 29 30 32 31 30 31 32 33 34 33 33 34 34 34 35 35 36 37 38 39 39 37 35 34 34 34 35 36 36 35 33 32 31 30 28 27 28 30 32 34 35 35 34 32 31 30 29
9 9 7 6 7 5 5 9 13 13 12 13 15 18 19 20 21 22 22 24 25 26 28 29 30 31 33 33 34 36 37 37 37 37 35 34 32 32 32 31 32 33 33 32 31 30 32 35 36 36 36 37 36 35 35 37 38 40 41 41 41 40 39 39 39 39 39 38 36 33 31 29 27 26 26 29 30 32 32 32 31 28 25 25 26 27
10 11 8 7 7 6 8 13 15 15 15 16 17 19 21 23 24 25 26 27 28 29 31 31 31 31 32 33 34 35 36 35 35 35 36 36 36 36 36 35 35 36 36 35 33 32 32 34 36 38 40 40 40 39 39 40 41 41 42 43 42 42 41 39 40 41 40 38 36 33 30 28 26 25 27 29 29 29 28 27 25 24 24 25 26 26
13 13 12 10 9 9 11 14 16 17 18 19 19 21 23 24 26 27 27 28 29 30 31 31 30 30 30 31 32 33 34 34 35 36 37 38 38 38 38 38 38 39 38 37 36 34 33 33 35 38 40 41 42 43 44 44 43 43 44 43 42 42 41 39 39 40 39 37 36 34 30 26 25 26 27 27 27 26 24 23 23 24 25 25 25 24
12 12 13 14 14 14 15 16 18 20 21 22 22 22 24 25 26 27 26 26 26 27 28 29 30 30 30 30 31 32 34 36 37 37 38 38 38 38 37 37 38 38 38 37 36 36 35 34 34 36 37 38 39 41 44 44 44 43 42 41 40 40 39 38 37 37 36 35 34 32 29 27 26 26 26 27 27 25 23 22 23 24 24 24 23 23
Wind_Direction
229 245 239 243 231 227 240 243 247 259 273 267 277 295 294 322 336 228 180 162 161 172 178 237 258 232 233 232 226 239 241 216 209 215 213 201 208 209 221 270 250 217 215 221 228 222 221 216 212 221 215 195 196 197 193 199 205 209 218 230 249 268 290 306 316 327 337 346 352 357 3 12 13 3 346 330 325 322 315 287 261 248 241 238 235 235
243 250 257 253 251 259 253 249 257 266 276 271 276 291 281 305 349 93 153 159 167 175 187 220 235 233 244 234 225 233 200 193 204 209 205 214 227 226 257 276 257 212 193 202 222 225 223 223 223 231 231 213 206 205 203 208 212 216 223 231 245 265 287 300 311 323 329 335 344 353 359 8 13 8 357 339 325 321 318 304 287 273 261 254 247 245
236 246 267 257 242 258 260 265 278 282 282 279 279 285 277 291 344 67 144 159 164 182 212 224 238 248 248 256 317 222 184 184 205 213 214 232 253 255 255 267 267 238 209 202 215 225 226 229 231 237 242 229 216 217 218 215 218 223 226 229 240 259 278 294 306 315 322 330 339 345 353 3 10 8 0 350 340 336 328 315 298 279 270 265 258 255
231 246 273 256 228 243 251 261 277 288 288 282 281 284 270 271 315 338 149 134 137 148 201 221 239 244 240 251 305 208 181 183 186 188 213 247 271 280 262 262 266 243 221 208 219 229 226 230 236 241 242 233 224 230 232 224 223 228 228 231 240 252 268 285 298 310 320 329 335 341 350 358 2 3 1 358 354 352 352 334 308 282 270 268 264 255
232 253 279 244 225 232 237 249 274 292 291 276 270 284 267 259 296 321 327 134 152 357 283 219 236 241 236 244 273 285 250 208 185 182 218 259 269 272 266 271 268 243 229 219 221 226 225 235 244 243 240 234 230 236 237 228 226 228 227 232 238 244 257 273 289 304 316 326 331 338 347 354 358 359 358 358 358 357 12 31 32 5 325 314 311 270
241 249 254 224 219 237 244 253 284 300 298 277 249 276 279 272 290 298 291 290 276 313 309 239 241 248 241 250 271 284 279 243 226 232 253 259 245 240 253 266 256 229 221 217 213 218 226 235 243 244 239 236 234 235 235 228 227 229 227 233 240 241 249 261 276 291 305 318 327 332 339 347 355 357 354 353 355 350 354 17 26 6 341 337 338 321
247 241 228 216 214 223 237 252 285 290 286 282 267 270 274 274 288 283 280 294 279 298 301 233 237 258 251 260 260 263 281 265 250 249 238 198 199 226 251 254 236 220 227 240 247 241 242 243 244 244 237 238 241 238 234 231 230 230 229 236 242 241 242 248 259 275 292 304 317 325 330 339 350 356 352 351 355 350 339 326 310 302 287 283 292 295
241 231 219 223 239 232 241 257 269 275 265 265 267 269 264 265 286 290 281 291 287 287 278 213 214 247 255 265 253 250 282 268 234 218 196 181 205 237 243 243 240 249 253 257 264 257 257 260 255 251 245 245 245 241 238 237 236 235 234 238 242 241 237 238 246 259 277 289 301 314 320 329 344 355 354 353 359 359 353 349 344 336 304 275 270 269
255 271 246 247 260 255 262 262 258 258 252 249 253 264 265 257 265 281 292 295 282 268 241 202 213 244 245 259 264 263 278 251 198 189 192 200 229 227 226 234 237 243 240 235 247 249 254 258 253 256 258 252 246 246 247 246 245 240 237 240 243 242 236 235 242 248 262 277 285 301 311 319 335 351 356 356 1 5 9 19 34 38 36 26 323 258
252 271 266 251 265 283 280 264 246 242 244 245 241 249 270 262 256 264 285 298 288 253 233 225 248 275 264 265 263 261 264 229 191 181 184 188 207 203 196 195 207 199 163 189 219 236 254 259 257 259 257 255 251 251 251 250 252 247 243 246 243 238 234 233 240 245 253 266 273 287 300 307 324 345 356 0 5 11 19 36 54 52 42 38 39 46
241 248 257 247 251 292 284 263 254 252 249 248 239 250 275 290 266 257 262 274 283 288 282 256 261 268 275 272 256 258 263 227 203 189 179 183 196 186 167 148 155 144 132 157 185 201 236 249 257 263 260 262 260 256 253 250 252 248 247 251 240 227 228 232 237 244 249 258 265 275 288 296 313 336 351 2 8 15 23 38 50 46 36 32 35 44
237 247 258 251 252 275 276 257 260 270 240 236 260 272 282 304 271 253 250 253 257 281 276 285 286 270 250 252 258 267 257 216 210 208 193 194 200 195 190 181 165 149 152 172 192 194 189 206 249 272 274 271 264 262 259 253 254 248 246 250 237 221 222 228 235 241 244 252 259 265 278 286 301 325 345 2 10 17 29 41 47 46 41 38 39 47
251 251 257 268 269 267 266 253 255 284 234 233 269 288 292 328 300 262 248 233 236 246 258 292 316 297 259 250 242 239 226 205 206 212 196 194 204 212 216 216 209 200 200 210 218 219 219 237 266 277 271 262 260 263 263 260 263 258 251 249 238 224 219 224 233 238 241 248 253 259 269 275 289 311 332 359 9 16 34 49 53 55 54 54 56 59
276 264 258 272 264 232 232 260 235 240 239 221 237 246 232 229 54 290 295 265 276 271 277 294 298 291 294 257 209 211 222 206 198 196 190 193 205 214 218 225 228 229 232 236 241 246 249 259 272 277 267 260 263 267 266 263 264 266 263 254 241 229 219 222 232 235 238 244 247 250 259 266 277 292 304 344 12 18 39 57 64 67 68 69 70 70
266 283 261 260 249 218 235 279 220 232 263 233 228 227 221 206 164 204 205 126 233 271 307 309 258 253 308 76 150 192 187 167 170 178 185 191 198 206 215 225 229 231 240 248 253 255 252 253 263 274 277 274 275 275 270 267 262 263 265 261 250 234 218 215 227 234 235 239 241 243 249 256 262 272 281 293 19 14 26 57 67 74 76 78 80 78
230 253 260 254 240 215 217 221 195 241 266 271 242 223 226 228 202 206 207 215 240 250 299 287 257 214 261 180 145 182 180 169 172 179 185 191 194 198 205 216 227 236 248 256 258 258 253 253 259 273 282 285 287 283 276 270 262 262 264 264 261 245 223 213 219 227 230 232 235 239 241 246 248 254 264 260 253 290 284 42 59 71 77 84 87 85
222 239 254 230 198 195 198 197 217 253 270 314 285 234 241 236 211 216 226 226 241 269 251 258 246 201 215 215 195 198 201 205 212 210 210 215 218 217 215 222 233 244 252 257 258 255 250 254 262 272 283 291 295 290 280 269 260 261 265 261 253 241 224 216 215 217 219 222 229 232 228 231 240 243 248 250 246 242 237 246 254 225 48 69 83 87
258 261 266 222 189 212 241 238 249 267 284 300 280 293 324 244 210 210 217 192 163 161 220 244 244 210 202 208 200 202 211 213 213 215 219 223 228 231 231 235 239 242 245 247 251 253 247 253 265 273 288 301 305 300 285 272 261 259 263 261 246 227 215 217 220 219 218 217 221 224 219 219 232 237 239 241 239 240 244 245 244 243 256 278 322 338
289 281 275 268 256 263 263 229 233 245 256 264 269 292 318 278 227 220 216 174 119 172 246 252 250 227 156 183 206 210 211 203 201 209 216 217 219 224 230 236 237 232 234 238 242 248 246 248 257 264 293 314 315 313 293 273 260 254 260 265 258 244 230 224 227 232 232 227 224 222 215 218 228 233 238 238 234 237 243 246 250 253 252 254 269 283
277 285 280 265 259 274 286 226 209 225 265 266 253 256 276 290 282 272 219 190 170 189 246 270 276 36 46 26 310 221 202 190 190 199 209 212 212 217 230 243 241 231 233 238 236 240 248 251 255 261 281 305 309 317 314 295 281 258 256 262 265 266 258 241 231 238 241 238 232 222 210 216 226 230 235 238 235 234 238 243 249 252 254 255 252 258
254 269 283 259 246 262 277 213 182 263 304 298 263 251 271 289 303 326 305 296 322 184 150 84 14 35 28 20 25 179 188 194 199 192 199 211 215 223 243 255 248 236 238 240 236 240 252 259 267 273 280 291 295 300 317 323 317 298 284 287 288 278 261 250 244 240 238 237 235 223 209 212 223 228 232 236 237 235 235 239 245 251 257 258 255 254
240 247 263 251 249 258 260 262 298 304 301 298 278 263 309 327 24 17 312 307 312 297 145 128 214 236 249 115 98 142 184 214 230 215 212 223 224 231 251 259 253 249 246 240 239 242 250 262 271 277 280 282 286 293 300 309 314 313 308 308 308 301 278 253 240 233 229 229 231 224 213 212 220 226 228 232 236 237 236 237 241 248 254 258 258 258
225 227 256 255 254 259 260 268 274 271 283 288 260 235 282 314 334 192 251 287 284 277 317 129 207 238 211 192 177 209 235 251 240 230 233 238 239 243 253 253 251 260 257 245 244 247 252 260 264 268 274 275 279 286 292 299 306 313 316 311 307 308 298 263 241 235 229 226 229 226 219 218 221 225 228 231 236 241 243 244 244 248 254 260 264 267
234 241 268 270 265 266 263 258 255 260 296 312 289 259 256 275 355 310 306 325 288 253 307 22 124 134 170 176 210 234 258 260 231 226 235 236 234 237 241 244 249 261 266 255 252 255 260 266 268 268 271 272 275 279 284 291 297 304 308 305 299 299 296 271 257 250 231 223 224 224 226 228 228 231 236 238 244 250 252 253 254 255 259 264 268 274
247 237 263 275 283 285 272 260 261 284 348 33 18 338 226 189 323 315 316 339 339 214 136 30 113 120 121 98 125 197 303 319 237 233 250 246 238 240 244 247 251 259 269 267 261 258 260 264 267 270 273 274 273 274 276 280 286 291 295 299 294 280 264 251 252 256 237 225 226 231 240 242 238 241 248 252 259 264 263 263 266 266 264 263 264 269
251 227 224 228 211 262 266 288 335 329 330 340 349 356 356 291 314 318 309 320 338 349 266 301 96 102 95 68 77 192 232 354 336 265 258 256 253 253 252 252 254 261 272 275 269 266 266 266 264 263 268 271 271 272 273 273 275 280 285 292 294 280 263 256 258 264 259 246 243 246 253 251 243 245 250 254 261 266 265 268 272 275 273 267 264 267
255 239 231 227 222 239 258 277 306 315 315 317 318 318 318 312 319 331 313 295 321 339 312 306 76 89 88 71 41 34 204 316 350 323 268 254 247 246 248 250 256 266 271 272 269 267 269 273 272 268 265 263 263 265 267 266 267 270 274 282 289 287 282 277 275 279 276 268 265 260 255 249 245 248 251 253 258 261 263 267 272 277 277 271 268 273
263 253 243 236 238 246 259 273 289 301 304 307 305 298 298 298 296 309 306 292 301 309 292 281 275 279 304 325 336 330 291 280 313 317 294 274 250 242 251 257 262 267 268 269 265 262 266 271 275 277 274 270 266 262 258 257 258 262 266 270 275 281 285 286 292 303 304 299 296 291 278 262 252 251 253 254 259 263 268 272 274 277 279 275 273 275
261 253 250 247 251 259 267 275 284 289 289 289 288 286 287 287 291 301 303 297 294 287 282 284 275 270 284 296 293 291 277 263 264 285 301 294 275 264 265 265 264 265 267 269 266 261 262 261 260 263 267 270 270 264 259 255 253 255 260 266 273 278 280 285 291 294 295 298 302 303 298 289 276 269 266 266 269 271 274 276 277 278 280 279 277 276
255 256 254 247 254 262 263 267 271 276 284 282 277 278 279 283 290 293 298 301 294 284 287 293 284 279 293 292 271 265 260 253 246 247 275 296 285 278 269 252 244 247 252 262 271 272 267 260 252 249 248 251 255 257 257 256 253 252 257 263 268 273 278 283 287 287 288 291 293 291 287 283 279 274 273 272 271 272 274 275 275 277 278 277 277 277
231 227 226 232 251 262 262 265 274 285 290 282 279 281 277 277 281 279 283 295 291 285 290 288 285 309 326 294 275 269 265 264 261 256 251 236 226 254 259 247 250 253 244 242 260 271 271 268 262 257 252 247 249 251 253 255 255 252 253 258 263 269 278 281 280 280 282 282 279 276 274 272 270 267 267 266 264 265 266 268 270 272 274 276 276 275
236 220 228 247 267 277 278 279 290 293 280 272 280 289 282 280 283 281 287 301 298 290 293 294 298 339 334 289 272 264 259 259 259 256 248 232 212 203 221 242 264 266 256 252 259 265 269 269 267 266 261 257 258 256 251 252 255 252 250 253 261 267 269 269 270 273 274 273 271 269 267 265 263 262 262 262 262 264 266 269 271 271 271 272 272 271
250 244 252 262 268 276 275 269 287 300 289 283 305 311 292 288 281 275 285 313 307 287 285 308 2 339 286 275 262 254 251 245 241 241 243 240 233 225 224 224 230 248 252 254 257 258 259 260 263 265 262 260 261 257 249 248 254 256 255 253 258 260 258 259 264 266 266 267 268 269 268 266 265 264 263 264 264 267 270 273 274 273 273 272 271 270
245 245 246 246 254 273 275 265 285 299 288 286 301 282 279 286 274 265 274 304 295 275 261 235 255 270 272 265 250 254 254 249 247 248 250 251 249 242 234 231 230 235 242 241 239 239 241 246 255 261 260 258 258 255 250 248 252 257 259 254 252 255 256 260 263 262 262 264 266 268 268 268 268 267 267 268 268 268 269 270 271 272 272 271 271 271
253 247 244 244 247 261 274 280 297 293 234 254 280 263 260 277 270 255 255 261 262 261 254 244 252 264 268 255 236 241 253 254 252 251 250 251 251 249 248 245 243 246 247 237 234 237 241 245 252 256 257 255 252 250 250 249 248 248 249 249 250 251 255 261 264 263 263 263 264 267 268 267 267 268 268 268 268 268 268 268 269 269 270 270 270 270
244 242 244 246 243 245 245 223 225 226 203 254 284 279 271 279 278 260 250 252 258 263 267 271 270 271 269 257 241 233 236 243 251 249 245 245 246 248 251 251 250 251 252 247 244 244 243 244 246 247 247 247 244 243 247 250 252 255 257 257 254 252 253 255 259 264 265 265 263 263 264 264 263 263 264 266 268 270 270 269 269 269 270 270 271 271
244 245 244 241 233 224 215 211 236 262 271 276 285 285 278 281 283 263 238 236 248 254 261 267 267 269 270 265 254 242 237 244 253 237 224 233 243 247 250 252 253 254 253 253 254 251 238 235 239 241 243 243 240 239 242 248 254 262 265 261 254 252 253 253 256 261 263 264 262 260 261 262 262 263 264 265 269 272 272 272 272 271 270 270 271 272
250 246 239 234 223 213 218 223 241 265 271 253 261 272 272 280 285 258 231 223 240 246 251 257 260 264 266 262 254 245 245 252 253 236 221 226 240 246 250 254 256 256 253 251 253 247 222 227 241 247 252 255 252 247 245 247 253 261 263 257 251 251 254 256 258 260 261 262 263 262 261 261 263 265 266 268 270 272 273 272 270 269 269 268 267 268
232 229 230 232 227 210 211 212 219 243 235 198 206 246 259 259 262 260 250 237 239 240 243 249 250 253 254 251 248 250 253 251 246 241 236 232 236 241 245 249 254 255 252 248 246 235 220 225 235 241 248 255 258 256 250 245 247 254 257 256 255 252 251 253 257 258 260 262 265 266 265 264 265 267 268 269 272 274 276 274 270 266 265 264 264 264
211 208 215 222 225 226 227 228 232 235 225 208 215 236 249 254 259 266 270 244 235 232 235 244 247 253 256 254 253 254 256 254 250 251 248 243 243 247 249 248 247 245 240 239 240 238 238 242 244 244 247 252 255 258 257 250 247 249 254 260 261 254 247 247 251 254 257 259 261 263 265 266 267 268 270 271 273 275 277 276 272 267 263 263 264 265
234 246 253 246 248 245 237 235 231 213 211 228 239 248 257 263 264 261 249 239 236 235 242 248 251 257 263 267 266 258 249 247 251 253 253 252 253 255 253 250 247 244 241 240 240 242 244 247 250 251 254 257 260 263 263 261 259 256 257 261 261 255 247 245 247 250 253 256 258 260 263 266 268 270 272 274 276 278 279 279 276 271 267 264 264 264
280 283 293 283 270 260 256 260 261 79 288 282 288 297 291 280 263 248 250 254 259 263 262 263 270 275 278 284 283 271 258 252 253 253 254 255 256 255 254 253 252 252 250 247 245 242 241 244 249 252 253 254 258 261 260 260 261 260 259 259 259 255 251 249 249 250 252 255 258 260 262 264 267 270 272 273 276 280 282 283 281 277 273 269 266 265
339 309 326 325 286 269 288 313 313 341 343 339 339 343 334 324 308 292 282 278 279 277 273 274 281 283 277 273 273 271 266 261 259 259 259 258 256 255 255 255 256 255 254 252 249 244 242 244 246 248 248 250 254 256 255 254 253 252 254 256 258 258 259 258 259 259 259 259 259 260 262 264 266 269 271 272 276 280 282 283 281 279 276 272 268 267
15 294 321 12 341 294 353 37 19 7 14 5 347 338 340 331 313 300 288 279 277 276 276 278 279 277 273 269 266 266 266 265 265 267 269 269 270 269 266 263 259 256 255 255 252 247 246 247 246 244 244 247 250 253 253 254 251 248 247 248 250 255 259 263 266 267 265 264 263 263 264 265 266 268 270 272 276 278 279 280 280 278 275 273 272 274
65 73 225 119 79 354 278 12 348 352 9 353 337 333 321 300 288 283 278 278 279 278 277 278 277 275 274 273 273 272 272 273 275 278 280 281 281 279 276 271 266 262 259 258 256 253 251 249 248 247 246 247 249 251 253 254 253 251 250 249 249 251 255 258 261 263 265 265 266 266 267 267 268 269 270 273 276 277 277 278 279 279 279 280 281 281
220 257 273 249 229 240 236 250 269 259 267 291 303 298 281 276 276 277 278 279 279 278 277 277 276 275 274 274 277 278 279 280 282 285 286 286 283 279 276 274 273 271 268 264 261 259 256 252 250 249 248 249 250 251 251 250 249 249 250 250 249 249 250 252 254 257 260 263 265 267 269 270 271 272 273 275 277 277 277 277 280 284 285 286 286 284
283 267 276 289 281 267 270 279 265 258 268 282 280 274 272 271 271 272 275 278 279 279 279 277 276 275 275 276 278 280 281 282 283 285 286 285 282 280 279 279 278 278 276 272 267 261 257 256 255 251 248 248 251 252 252 250 249 249 250 250 249 247 247 248 249 252 257 261 264 267 269 270 270 271 272 272 271 272 273 277 281 283 282 282 283 284
328 302 300 311 298 274 266 271 266 265 275 282 280 280 279 276 276 275 276 278 280 282 283 283 282 282 281 281 281 281 282 282 283 284 285 284 283 284 284 282 280 279 278 277 273 266 260 258 257 254 251 250 250 251 252 251 251 251 251 252 253 253 252 250 250 253 258 261 263 264 266 268 269 270 270 269 267 268 271 276 278 278 274 274 278 280
301 302 295 283 276 261 254 260 264 268 272 275 277 280 281 283 284 283 280 280 281 282 284 284 284 285 285 285 284 283 283 284 284 284 284 283 283 283 283 282 280 279 279 278 275 270 264 260 258 257 255 255 254 253 253 253 253 253 254 255 256 257 257 255 254 255 257 260 261 263 265 267 269 267 265 263 261 263 268 272 274 274 272 271 273 274
280 288 288 278 273 265 260 269 280 285 287 286 285 287 289 291 291 289 287 287 286 285 286 286 286 286 287 289 289 288 287 287 285 283 282 281 281 281 281 280 279 278 279 279 278 275 270 265 262 260 260 260 259 257 256 255 255 256 257 258 258 259 259 257 255 253 253 256 260 262 264 264 263 262 260 257 255 257 263 267 267 267 268 268 268 269
276 283 286 282 277 273 271 279 288 294 297 298 297 296 296 295 295 296 296 295 293 292 292 293 294 293 292 292 292 292 290 288 286 285 284 283 283 282 280 279 278 278 279 279 279 277 275 272 268 265 265 265 263 260 258 258 258 258 259 259 259 258 257 257 256 253 251 251 253 256 259 259 257 256 255 253 254 258 262 262 262 262 263 263 264 267
Height
3094 3094 3093 3093 3092 3094 3095 3097 3097 3096 3096 3096 3095 3093 3092 3091 3089 3089 3090 3093 3094 3095 3098 3099 3099 3101 3102 3103 3103 3103 3104 3103 3101 3103 3104 3106 3108 3108 3109 3110 3112 3115 3116 3118 3119 3120 3121 3122 3123 3123 3125 3128 3129 3131 3133 3135 3136 3137 3138 3138 3138 3138 3138 3138 3139 3139 3138 3138 3138 3136 3135 3135 3133 3131 3129 3128 3127 3128 3129 3129 3130 3131 3132 3133 3135 3136
3094 3092 3092 3091 3092 3094 3095 3095 3095 3095 3095 3095 3094 3093 3092 3092 3092 3091 3091 3092 3093 3094 3097 3098 3099 3099 3101 3102 3102 3101 3101 3101 3101 3102 3103 3106 3108 3108 3109 3110 3112 3113 3115 3116 3118 3119 3120 3121 3122 3122 3124 3126 3128 3130 3132 3133 3134 3135 3136 3136 3136 3137 3137 3138 3138 3138 3138 3137 3136 3136 3135 3134 3133 3131 3130 3129 3128 3128 3128 3128 3128 3129 3129 3130 3131 3132
3093 3090 3090 3091 3092 3094 3094 3094 3093 3093 3093 3093 3093 3093 3092 3093 3094 3094 3093 3093 3093 3094 3096 3097 3097 3097 3098 3100 3101 3101 3101 3101 3101 3100 3101 3104 3106 3108 3108 3110 3112 3112 3114 3115 3117 3118 3119 3120 3121 3121 3123 3126 3127 3129 3130 3132 3133 3134 3134 3135 3135 3136 3136 3137 3137 3137 3137 3135 3135 3134 3133 3132 3132 3131 3130 3129 3128 3128 3128 3128 3128 3128 3128 3128 3129 3130
3090 3089 3089 3090 3091 3092 3092 3092 3092 3092 3092 3093 3093 3093 3092 3091 3094 3096 3095 3093 3093 3094 3095 3096 3097 3097 3097 3098 3100 3102 3102 3102 3101 3100 3100 3102 3104 3106 3106 3108 3110 3111 3112 3114 3115 3116 3118 3119 3120 3120 3121 3124 3126 3127 3129 3130 3131 3132 3133 3133 3134 3135 3135 3136 3136 3136 3135 3134 3133 3132 3131 3130 3130 3130 3129 3128 3127 3127 3128 3128 3128 3128 3128 3128 3129 3130
3088 3088 3089 3089 3089 3091 3091 3090 3091 3091 3091 3092 3092 3092 3091 3091 3093 3096 3095 3094 3093 3094 3095 3096 3097 3096 3095 3097 3099 3102 3102 3101 3101 3101 3102 3103 3104 3104 3104 3106 3108 3109 3111 3113 3114 3115 3117 3118 3119 3120 3121 3123 3125 3126 3127 3129 3130 3130 3131 3132 3133 3134 3134 3134 3134 3134 3134 3133 3132 3131 3130 3130 3129 3128 3127 3127 3127 3127 3127 3128 3128 3128 3128 3128 3129 3129
3086 3087 3088 3088 3089 3090 3089 3089 3090 3090 3090 3091 3091 3091 3091 3091 3092 3095 3095 3095 3094 3094 3095 3096 3097 3095 3095 3096 3098 3099 3100 3100 3100 3100 3102 3104 3104 3105 3105 3105 3107 3108 3110 3112 3114 3115 3116 3117 3118 3119 3120 3122 3123 3124 3125 3127 3128 3129 3130 3131 3132 3132 3133 3133 3133 3133 3133 3132 3132 3131 3130 3130 3129 3128 3127 3127 3127 3127 3127 3127 3128 3128 3128 3128 3128 3128
3085 3086 3087 3086 3087 3088 3088 3089 3089 3090 3090 3090 3090 3091 3091 3091 3091 3093 3094 3094 3095 3094 3094 3095 3097 3097 3095 3096 3096 3097 3099 3099 3098 3099 3101 3103 3103 3104 3105 3105 3105 3107 3108 3110 3112 3113 3115 3116 3117 3118 3119 3120 3122 3123 3123 3125 3127 3128 3129 3129 3130 3131 3132 3132 3132 3132 3132 3131 3131 3131 3130 3130 3129 3128 3127 3127 3127 3127 3127 3127 3127 3127 3127 3127 3127 3128
3084 3085 3085 3084 3086 3087 3087 3088 3089 3090 3090 3090 3090 3090 3091 3091 3091 3091 3092 3093 3094 3094 3094 3094 3095 3096 3095 3095 3095 3096 3097 3097 3097 3098 3100 3102 3103 3102 3103 3104 3104 3105 3106 3108 3110 3111 3113 3115 3116 3117 3118 3119 3120 3121 3122 3123 3125 3126 3127 3128 3129 3130 3131 3131 3131 3131 3131 3130 3130 3131 3130 3130 3129 3128 3127 3126 3126 3126 3126 3126 3126 3126 3126 3126 3127 3127
3083 3084 3084 3084 3084 3085 3086 3086 3088 3089 3089 3088 3089 3090 3090 3090 3090 3090 3091 3092 3092 3092 3093 3094 3095 3095 3095 3095 3095 3095 3096 3096 3096 3098 3099 3101 3102 3101 3100 3102 3103 3104 3106 3107 3108 3110 3112 3113 3115 3116 3117 3118 3119 3119 3120 3121 3123 3124 3126 3127 3128 3129 3131 3131 3131 3130 3130 3129 3129 3130 3130 3129 3128 3127 3126 3125 3125 3125 3125 3125 3125 3125 3125 3125 3126 3126
3082 3082 3083 3083 3083 3084 3084 3085 3086 3087 3087 3087 3089 3089 3089 3089 3089 3090 3090 3091 3091 3091 3092 3094 3095 3095 3094 3094 3095 3094 3095 3095 3096 3097 3099 3100 3101 3100 3100 3101 3102 3103 3105 3106 3107 3108 3110 3112 3113 3115 3116 3117 3117 3118 3119 3120 3121 3122 3124 3126 3127 3129 3130 3131 3131 3130 3129 3129 3129 3129 3129 3128 3127 3127 3126 3125 3125 3125 3125 3125 3124 3124 3125 3125 3125 3125
3080 3081 3082 3082 3082 3083 3083 3083 3084 3085 3086 3087 3088 3088 3088 3088 3089 3090 3090 3090 3090 3091 3092 3093 3094 3095 3094 3093 3093 3093 3094 3094 3094 3096 3098 3099 3100 3101 3101 3102 3102 3102 3103 3104 3106 3107 3108 3110 3111 3113 3115 3115 3116 3116 3117 3118 3119 3120 3121 3123 3125 3127 3128 3130 3130 3130 3129 3128 3128 3128 3128 3127 3126 3126 3125 3124 3124 3124 3125 3125 3124 3124 3124 3124 3125 3125
3078 3079 3080 3080 3081 3082 3082 3082 3083 3083 3083 3085 3086 3086 3087 3087 3088 3089 3089 3089 3090 3091 3092 3093 3093 3094 3093 3092 3092 3093 3093 3093 3093 3094 3096 3097 3099 3101 3101 3102 3102 3101 3102 3103 3104 3105 3107 3108 3109 3111 3113 3113 3113 3114 3115 3116 3116 3117 3118 3120 3122 3124 3125 3127 3129 3129 3129 3128 3127 3128 3127 3126 3126 3125 3125 3124 3124 3124 3125 3125 3125 3124 3125 3125 3125 3125
3077 3078 3079 3079 3079 3080 3081 3081 3082 3082 3082 3083 3084 3085 3087 3088 3089 3089 3088 3089 3090 3090 3091 3092 3092 3092 3092 3092 3092 3092 3092 3093 3093 3093 3094 3095 3097 3099 3100 3101 3101 3101 3102 3103 3103 3104 3106 3106 3108 3109 3110 3111 3111 3111 3112 3113 3113 3114 3115 3117 3119 3121 3122 3125 3127 3128 3128 3127 3127 3127 3127 3126 3125 3125 3125 3124 3124 3125 3125 3125 3125 3125 3125 3125 3126 3126
3077 3076 3077 3078 3077 3078 3079 3080 3081 3082 3082 3083 3084 3085 3086 3088 3090 3091 3090 3090 3090 3090 3090 3091 3091 3091 3091 3091 3091 3092 3092 3092 3092 3092 3093 3094 3096 3098 3099 3099 3100 3101 3102 3104 3105 3105 3106 3106 3106 3107 3108 3108 3108 3109 3110 3110 3110 3110 3111 3113 3116 3118 3120 3122 3125 3126 3127 3127 3126 3127 3126 3126 3125 3125 3125 3125 3124 3125 3125 3125 3125 3126 3126 3126 3126 3127
3076 3076 3076 3076 3076 3077 3078 3078 3079 3081 3082 3082 3083 3083 3084 3085 3087 3090 3090 3090 3091 3090 3090 3090 3091 3091 3091 3090 3091 3091 3091 3091 3091 3092 3093 3094 3095 3095 3096 3097 3099 3101 3102 3104 3105 3105 3106 3106 3105 3105 3105 3105 3106 3106 3106 3107 3108 3108 3108 3109 3111 3114 3116 3119 3123 3124 3124 3125 3125 3125 3125 3125 3125 3125 3125 3125 3125 3125 3126 3126 3126 3127 3127 3127 3127 3128
3075 3075 3075 3075 3075 3077 3078 3078 3079 3080 3081 3081 3081 3082 3082 3082 3084 3086 3088 3088 3089 3089 3089 3089 3089 3090 3091 3091 3091 3091 3091 3091 3092 3092 3093 3094 3094 3093 3094 3096 3097 3100 3102 3103 3103 3104 3104 3105 3104 3103 3103 3103 3104 3103 3103 3104 3105 3106 3106 3106 3107 3110 3113 3115 3117 3119 3120 3122 3123 3123 3124 3124 3124 3125 3125 3125 3125 3126 3126 3127 3127 3128 3128 3128 3128 3128
3074 3074 3074 3075 3075 3076 3078 3078 3079 3080 3080 3080 3080 3081 3082 3082 3083 3084 3086 3086 3087 3089 3089 3088 3088 3088 3089 3090 3090 3091 3091 3091 3091 3092 3092 3093 3093 3093 3094 3095 3097 3099 3100 3101 3101 3102 3103 3103 3103 3102 3101 3101 3101 3101 3101 3102 3103 3104 3104 3105 3106 3108 3110 3110 3112 3115 3117 3119 3120 3121 3122 3122 3123 3124 3124 3124 3125 3125 3126 3127 3128 3128 3129 3129 3129 3129
3074 3072 3072 3073 3074 3075 3077 3077 3078 3078 3079 3079 3079 3080 3081 3081 3082 3083 3084 3085 3087 3089 3088 3086 3086 3087 3088 3088 3088 3089 3090 3090 3090 3091 3091 3091 3092 3092 3094 3095 3097 3098 3099 3099 3100 3101 3102 3102 3102 3101 3101 3100 3099 3099 3099 3099 3100 3101 3102 3103 3105 3105 3106 3108 3111 3114 3114 3115 3117 3118 3119 3120 3122 3122 3123 3123 3124 3125 3126 3126 3127 3128 3129 3129 3130 3130
3073 3072 3072 3072 3072 3073 3075 3076 3076 3077 3079 3079 3079 3080 3081 3081 3082 3082 3083 3085 3086 3088 3087 3085 3085 3086 3087 3087 3088 3088 3089 3089 3089 3088 3089 3089 3089 3091 3093 3095 3097 3098 3098 3098 3099 3100 3100 3101 3101 3101 3101 3100 3100 3099 3098 3098 3098 3097 3098 3099 3100 3101 3102 3105 3110 3112 3110 3111 3113 3115 3117 3119 3120 3120 3120 3121 3122 3123 3124 3125 3126 3127 3128 3129 3130 3130
3073 3073 3072 3071 3071 3072 3073 3075 3076 3077 3078 3079 3079 3079 3080 3081 3081 3081 3082 3083 3084 3085 3086 3085 3084 3086 3086 3087 3087 3088 3088 3089 3089 3088 3088 3087 3088 3090 3093 3094 3096 3097 3097 3097 3098 3099 3099 3100 3100 3100 3100 3100 3100 3100 3100 3099 3098 3097 3096 3096 3096 3097 3099 3102 3106 3108 3108 3108 3110 3112 3114 3116 3118 3118 3118 3119 3120 3122 3123 3124 3124 3125 3126 3127 3128 3129
3072 3073 3072 3072 3072 3072 3073 3075 3076 3077 3077 3078 3079 3079 3080 3080 3080 3080 3081 3081 3082 3083 3084 3086 3087 3087 3086 3086 3086 3087 3088 3089 3089 3089 3088 3087 3088 3090 3092 3093 3094 3096 3096 3097 3097 3097 3098 3098 3099 3099 3099 3099 3099 3099 3099 3099 3099 3098 3097 3096 3095 3096 3097 3100 3103 3104 3105 3106 3108 3109 3111 3113 3115 3116 3116 3117 3117 3119 3121 3122 3122 3123 3124 3125 3126 3127
3071 3072 3072 3073 3073 3072 3072 3073 3075 3076 3076 3077 3078 3078 3079 3079 3078 3081 3084 3083 3081 3082 3083 3085 3087 3087 3086 3086 3086 3086 3088 3088 3089 3089 3089 3088 3088 3090 3091 3092 3094 3094 3095 3095 3096 3096 3097 3097 3097 3097 3098 3098 3098 3098 3098 3098 3098 3097 3097 3096 3096 3095 3096 3098 3100 3102 3103 3105 3106 3107 3108 3110 3112 3113 3113 3114 3115 3116 3118 3119 3120 3121 3122 3122 3123 3125
3070 3071 3072 3072 3073 3072 3072 3071 3072 3074 3075 3076 3076 3076 3078 3078 3079 3082 3084 3083 3081 3081 3081 3083 3085 3084 3085 3086 3086 3087 3088 3088 3088 3088 3088 3087 3088 3089 3090 3091 3092 3093 3094 3094 3094 3095 3095 3095 3096 3096 3096 3096 3097 3097 3097 3096 3096 3096 3096 3096 3095 3095 3095 3096 3098 3100 3102 3104 3105 3106 3107 3107 3109 3110 3111 3112 3113 3115 3116 3117 3118 3119 3120 3120 3121 3123
3070 3071 3071 3072 3072 3072 3071 3071 3071 3073 3074 3074 3074 3075 3076 3077 3078 3079 3081 3081 3080 3080 3080 3082 3083 3084 3084 3085 3086 3088 3089 3088 3086 3087 3086 3086 3087 3089 3089 3090 3091 3092 3092 3092 3093 3093 3093 3094 3094 3094 3095 3095 3096 3096 3096 3096 3095 3095 3095 3095 3095 3095 3095 3095 3097 3098 3101 3102 3103 3105 3106 3106 3108 3109 3111 3112 3114 3115 3116 3116 3117 3118 3118 3119 3120 3121
3069 3070 3070 3071 3072 3072 3071 3071 3072 3072 3072 3073 3074 3074 3075 3076 3077 3077 3078 3079 3079 3079 3080 3081 3083 3084 3085 3085 3086 3088 3088 3086 3086 3086 3086 3086 3087 3088 3088 3089 3089 3090 3090 3090 3091 3091 3092 3092 3093 3093 3094 3094 3094 3095 3095 3095 3095 3095 3094 3094 3094 3095 3095 3096 3096 3098 3099 3100 3101 3102 3104 3106 3108 3110 3111 3112 3114 3114 3115 3115 3115 3116 3117 3117 3118 3118
3069 3070 3070 3070 3072 3072 3072 3072 3073 3072 3072 3072 3074 3074 3074 3076 3076 3076 3077 3078 3079 3080 3079 3080 3082 3083 3084 3084 3085 3086 3087 3085 3085 3086 3085 3085 3086 3086 3087 3087 3088 3088 3088 3088 3089 3089 3089 3090 3091 3092 3093 3093 3093 3094 3094 3094 3094 3094 3094 3094 3094 3094 3095 3095 3096 3097 3098 3099 3100 3101 3103 3104 3105 3107 3108 3110 3110 3111 3112 3112 3113 3113 3114 3114 3115 3115
3067 3068 3069 3069 3070 3070 3071 3071 3072 3073 3072 3072 3072 3073 3074 3075 3075 3076 3077 3078 3079 3079 3079 3080 3081 3082 3083 3083 3084 3085 3085 3085 3085 3085 3084 3084 3084 3085 3085 3085 3086 3086 3086 3087 3087 3087 3087 3087 3088 3089 3090 3091 3092 3093 3093 3093 3093 3093 3093 3094 3094 3094 3095 3095 3095 3096 3097 3098 3099 3100 3101 3101 3102 3103 3105 3106 3107 3108 3108 3109 3110 3110 3110 3111 3111 3112
3065 3066 3067 3068 3068 3069 3069 3069 3070 3071 3071 3071 3072 3072 3073 3073 3074 3075 3076 3077 3078 3078 3078 3079 3080 3081 3082 3083 3083 3083 3084 3085 3084 3084 3084 3083 3083 3084 3084 3084 3085 3085 3085 3085 3085 3085 3085 3085 3086 3086 3086 3087 3089 3091 3092 3092 3092 3092 3093 3093 3094 3094 3094 3094 3095 3095 3096 3096 3097 3098 3098 3099 3100 3100 3102 3103 3104 3104 3105 3106 3106 3106 3106 3107 3108 3109
3063 3064 3065 3066 3066 3068 3069 3070 3070 3071 3070 3070 3071 3071 3071 3072 3073 3074 3074 3075 3076 3076 3076 3077 3079 3080 3080 3080 3082 3082 3082 3083 3083 3083 3083 3083 3083 3083 3083 3083 3084 3083 3083 3083 3083 3084 3084 3084 3084 3084 3084 3084 3085 3087 3089 3090 3091 3091 3092 3092 3093 3093 3093 3094 3094 3094 3095 3095 3096 3096 3096 3097 3098 3099 3099 3100 3100 3101 3101 3102 3103 3103 3103 3103 3105 3106
3062 3063 3064 3065 3065 3066 3067 3068 3069 3069 3069 3069 3069 3069 3070 3071 3071 3072 3072 3073 3073 3073 3074 3076 3077 3077 3077 3078 3079 3079 3079 3080 3080 3081 3082 3082 3082 3082 3081 3082 3082 3081 3081 3081 3081 3081 3082 3082 3083 3083 3082 3082 3082 3084 3085 3086 3088 3089 3090 3090 3091 3091 3092 3092 3092 3093 3093 3094 3094 3094 3095 3095 3096 3097 3097 3097 3098 3098 3098 3099 3099 3100 3100 3101 3102 3103
3061 3063 3063 3063 3064 3065 3066 3067 3067 3068 3067 3066 3066 3067 3068 3069 3069 3070 3070 3070 3070 3071 3071 3072 3073 3073 3074 3075 3076 3076 3077 3077 3077 3078 3079 3080 3080 3079 3079 3080 3080 3080 3080 3079 3079 3078 3078 3080 3081 3081 3081 3081 3081 3082 3083 3083 3084 3085 3087 3088 3088 3089 3090 3090 3090 3091 3091 3092 3093 3093 3094 3094 3095 3095 3095 3095 3096 3096 3096 3096 3097 3098 3098 3099 3100 3100
3060 3061 3062 3062 3063 3063 3065 3066 3066 3065 3064 3064 3065 3065 3066 3067 3067 3067 3068 3068 3068 3068 3067 3068 3069 3069 3071 3072 3072 3072 3074 3074 3074 3075 3076 3077 3077 3076 3076 3077 3077 3077 3077 3077 3077 3076 3075 3076 3077 3078 3079 3080 3080 3080 3080 3080 3080 3081 3084 3085 3086 3087 3088 3088 3088 3089 3089 3090 3091 3092 3092 3093 3093 3093 3093 3093 3094 3094 3094 3094 3094 3095 3095 3096 3096 3097
3059 3059 3060 3061 3061 3062 3063 3064 3063 3062 3063 3063 3064 3064 3065 3065 3066 3066 3067 3066 3065 3066 3066 3067 3068 3069 3069 3069 3069 3070 3070 3071 3072 3072 3073 3073 3074 3075 3075 3075 3075 3074 3074 3074 3074 3073 3072 3072 3072 3073 3076 3078 3078 3077 3078 3078 3077 3077 3080 3082 3083 3084 3085 3086 3086 3087 3087 3088 3088 3089 3089 3090 3090 3090 3091 3091 3091 3091 3091 3091 3091 3091 3091 3092 3092 3093
3057 3058 3059 3060 3060 3060 3061 3062 3062 3063 3063 3063 3063 3064 3064 3064 3063 3065 3065 3064 3064 3065 3066 3066 3066 3067 3066 3066 3066 3067 3067 3068 3069 3069 3069 3070 3072 3073 3073 3073 3073 3073 3072 3073 3072 3071 3069 3068 3068 3070 3072 3074 3075 3075 3076 3077 3075 3075 3078 3079 3079 3080 3082 3083 3084 3084 3085 3085 3085 3086 3086 3087 3087 3087 3087 3088 3088 3088 3088 3088 3088 3088 3088 3089 3089 3089
3056 3056 3057 3058 3058 3059 3059 3061 3062 3062 3061 3062 3062 3062 3062 3062 3062 3064 3064 3062 3062 3064 3064 3063 3064 3064 3064 3065 3065 3065 3066 3066 3065 3065 3065 3067 3068 3068 3069 3070 3071 3070 3069 3070 3070 3068 3066 3066 3067 3067 3068 3071 3072 3074 3074 3074 3073 3073 3074 3075 3076 3077 3079 3079 3080 3081 3081 3082 3082 3082 3083 3083 3083 3084 3084 3084 3085 3085 3085 3085 3086 3086 3086 3086 3086 3086
3054 3054 3055 3055 3056 3056 3057 3059 3060 3059 3059 3060 3059 3059 3060 3060 3060 3061 3061 3060 3061 3062 3061 3061 3062 3061 3062 3063 3063 3063 3064 3063 3063 3063 3064 3065 3064 3064 3066 3067 3066 3066 3066 3067 3067 3066 3064 3065 3065 3065 3066 3068 3069 3071 3071 3070 3069 3070 3071 3072 3072 3073 3075 3076 3076 3077 3078 3079 3079 3080 3080 3080 3080 3081 3081 3082 3082 3082 3082 3083 3083 3083 3083 3083 3083 3083
3051 3051 3052 3053 3053 3053 3054 3056 3056 3056 3057 3057 3057 3056 3057 3057 3058 3059 3059 3058 3059 3059 3058 3058 3059 3058 3058 3059 3059 3060 3061 3061 3061 3061 3062 3062 3062 3062 3063 3063 3063 3063 3063 3064 3064 3063 3062 3063 3064 3063 3064 3064 3065 3066 3067 3067 3067 3067 3068 3069 3069 3069 3071 3072 3073 3073 3074 3075 3075 3076 3076 3076 3077 3078 3078 3079 3079 3079 3079 3080 3080 3080 3080 3080 3080 3079
3048 3048 3049 3050 3050 3050 3052 3053 3054 3055 3056 3055 3055 3055 3055 3056 3057 3057 3057 3057 3057 3056 3056 3056 3056 3055 3055 3056 3057 3058 3059 3059 3059 3059 3059 3059 3059 3059 3060 3060 3061 3062 3061 3061 3061 3060 3060 3060 3061 3061 3061 3061 3061 3062 3063 3065 3064 3064 3064 3065 3065 3066 3067 3068 3069 3070 3070 3071 3071 3072 3073 3073 3073 3074 3074 3075 3075 3076 3076 3077 3077 3077 3077 3077 3077 3076
3045 3045 3046 3047 3047 3048 3050 3051 3053 3054 3054 3053 3053 3053 3054 3055 3056 3055 3056 3056 3055 3055 3054 3054 3054 3053 3054 3054 3055 3056 3056 3056 3056 3055 3056 3056 3056 3056 3056 3057 3058 3059 3059 3059 3059 3058 3057 3057 3057 3057 3057 3057 3057 3058 3060 3061 3061 3061 3061 3061 3062 3063 3063 3064 3065 3066 3067 3067 3067 3068 3069 3069 3069 3070 3070 3071 3071 3072 3073 3073 3073 3074 3074 3073 3073 3073
3042 3043 3043 3044 3045 3047 3049 3050 3051 3052 3052 3051 3051 3051 3052 3053 3053 3054 3054 3054 3053 3053 3053 3052 3052 3052 3052 3052 3053 3054 3054 3053 3053 3053 3053 3054 3055 3055 3055 3054 3055 3055 3056 3057 3056 3055 3055 3055 3055 3054 3054 3054 3054 3055 3056 3057 3058 3058 3058 3058 3058 3058 3059 3060 3061 3062 3063 3063 3064 3064 3064 3065 3065 3066 3066 3066 3067 3068 3068 3069 3069 3070 3070 3069 3069 3069
3041 3042 3042 3043 3044 3046 3047 3049 3049 3050 3050 3050 3050 3050 3050 3051 3052 3053 3052 3052 3051 3051 3051 3051 3051 3051 3050 3050 3051 3051 3051 3050 3050 3050 3050 3051 3053 3053 3053 3052 3051 3051 3052 3053 3053 3052 3052 3052 3052 3052 3051 3051 3051 3051 3052 3053 3053 3053 3054 3054 3054 3054 3054 3055 3056 3057 3058 3058 3059 3060 3060 3061 3061 3061 3062 3062 3062 3062 3063 3064 3065 3065 3065 3065 3065 3065
3041 3041 3042 3043 3044 3045 3046 3047 3048 3049 3049 3049 3049 3049 3049 3049 3050 3051 3050 3050 3050 3050 3049 3049 3049 3049 3049 3048 3048 3048 3048 3047 3047 3047 3047 3048 3048 3049 3049 3049 3048 3048 3048 3048 3049 3049 3049 3049 3049 3049 3049 3048 3048 3048 3048 3048 3048 3048 3048 3048 3049 3049 3049 3050 3051 3051 3052 3053 3054 3054 3055 3056 3057 3057 3057 3057 3057 3057 3057 3058 3059 3060 3060 3060 3060 3060
3042 3043 3043 3044 3044 3045 3045 3046 3048 3049 3049 3048 3048 3048 3048 3049 3050 3049 3049 3049 3048 3047 3047 3047 3047 3047 3046 3045 3045 3044 3044 3044 3044 3044 3043 3043 3043 3044 3044 3045 3044 3044 3043 3043 3044 3044 3044 3044 3044 3045 3045 3044 3044 3044 3044 3043 3043 3043 3043 3043 3044 3045 3045 3045 3046 3046 3047 3048 3048 3049 3050 3051 3052 3052 3052 3053 3052 3052 3052 3052 3053 3054 3055 3054 3055 3055
3043 3043 3044 3044 3044 3045 3046 3047 3049 3050 3049 3047 3047 3048 3049 3049 3048 3047 3047 3046 3045 3044 3044 3045 3044 3044 3043 3042 3041 3041 3040 3040 3040 3040 3040 3040 3040 3040 3040 3039 3039 3038 3038 3038 3038 3039 3039 3038 3038 3039 3039 3039 3039 3039 3039 3039 3038 3038 3038 3039 3039 3040 3041 3041 3041 3041 3042 3042 3043 3044 3045 3045 3046 3047 3047 3048 3048 3048 3047 3048 3048 3049 3049 3049 3050 3051
3043 3043 3044 3045 3045 3046 3047 3048 3049 3049 3049 3048 3048 3048 3048 3046 3045 3045 3044 3043 3043 3043 3042 3042 3042 3041 3041 3039 3038 3038 3037 3037 3037 3037 3037 3036 3036 3035 3035 3034 3033 3032 3032 3032 3032 3033 3033 3032 3032 3032 3033 3033 3033 3033 3034 3034 3033 3033 3033 3034 3034 3035 3035 3036 3036 3036 3037 3037 3038 3038 3039 3040 3041 3042 3042 3043 3043 3043 3042 3042 3043 3043 3043 3044 3046 3047
3043 3043 3043 3044 3045 3045 3047 3047 3046 3046 3047 3047 3047 3046 3045 3043 3043 3043 3042 3041 3041 3041 3040 3040 3039 3038 3037 3036 3035 3035 3034 3034 3033 3033 3032 3031 3030 3030 3029 3029 3028 3027 3028 3028 3028 3027 3027 3026 3026 3026 3026 3027 3027 3027 3027 3028 3027 3027 3027 3028 3029 3030 3030 3031 3031 3031 3032 3032 3033 3034 3035 3035 3036 3037 3037 3038 3038 3037 3037 3037 3038 3038 3038 3038 3040 3041
3041 3041 3042 3043 3043 3045 3046 3044 3043 3044 3044 3044 3044 3043 3043 3042 3041 3041 3040 3039 3038 3037 3037 3036 3036 3035 3034 3033 3032 3031 3030 3029 3028 3027 3027 3026 3025 3025 3024 3024 3023 3022 3022 3022 3022 3022 3022 3021 3021 3020 3020 3020 3020 3021 3021 3021 3022 3022 3022 3022 3023 3025 3026 3026 3026 3026 3027 3027 3028 3029 3030 3031 3032 3032 3033 3033 3033 3032 3032 3033 3034 3034 3034 3034 3034 3035
3040 3040 3041 3042 3042 3043 3043 3042 3041 3042 3043 3042 3042 3042 3041 3041 3040 3039 3038 3036 3035 3034 3033 3032 3032 3031 3030 3029 3028 3026 3025 3025 3023 3022 3021 3021 3020 3019 3019 3018 3017 3016 3016 3016 3016 3016 3016 3015 3015 3014 3014 3014 3014 3015 3015 3016 3016 3017 3017 3017 3018 3020 3021 3022 3022 3022 3022 3023 3023 3024 3025 3026 3027 3028 3028 3028 3027 3028 3028 3029 3030 3030 3031 3031 3030 3030
3039 3039 3040 3041 3041 3041 3041 3039 3039 3040 3041 3041 3041 3040 3039 3038 3037 3035 3034 3033 3032 3031 3029 3029 3028 3027 3026 3025 3023 3022 3020 3019 3018 3017 3016 3015 3014 3013 3012 3011 3011 3010 3009 3009 3009 3009 3009 3009 3008 3008 3008 3008 3008 3009 3009 3010 3010 3011 3011 3012 3013 3014 3015 3016 3017 3017 3017 3018 3018 3019 3021 3022 3023 3023 3023 3022 3022 3023 3024 3025 3026 3027 3027 3027 3026 3026
3038 3039 3039 3040 3040 3040 3039 3038 3038 3038 3038 3039 3038 3038 3036 3035 3033 3031 3030 3029 3028 3027 3026 3025 3024 3023 3022 3020 3018 3016 3014 3013 3012 3011 3009 3008 3007 3006 3005 3005 3004 3003 3002 3002 3002 3002 3002 3002 3002 3001 3001 3002 3002 3002 3002 3003 3004 3005 3005 3006 3007 3008 3008 3009 3010 3011 3012 3012 3013 3014 3016 3017 3018 3018 3017 3017 3018 3020 3021 3022 3022 3023 3023 3023 3023 3023
3038 3038 3038 3039 3039 3039 3038 3038 3037 3036 3036 3036 3035 3034 3033 3030 3029 3028 3027 3026 3024 3023 3022 3020 3019 3017 3016 3015 3013 3011 3009 3007 3005 3004 3003 3002 3001 3000 2999 2998 2997 2997 2997 2996 2996 2996 2996 2996 2996 2995 2995 2995 2995 2995 2995 2996 2997 2998 2999 3000 3000 3001 3002 3002 3003 3004 3005 3006 3007 3008 3010 3012 3012 3012 3012 3013 3014 3016 3017 3018 3019 3019 3019 3019 3019 3019